Find Starlink 5119

NORAD ID: 53986 Int'l Des: 2022-125 Owner: SPXS Country: US Constellation: starlink operational
LEOCIRCULAR

当前视图

正在加载3D地球...

关于 Starlink 5119

正在加载描述...

即将过境

Passes for default location (London). Set your location on the main map for personalized predictions.

高度历史

Loading altitude history...

两行轨道根数

1 53986U 22125Y 26149.54362978 -.00000474 00000-0 -11709-4 0 9998
2 53986 53.1996 200.8276 0001232 76.3335 283.7794 15.08845799201803
Epoch: May 29, 2026 • Age: 21 hours

当前状态

高度 540.8 km
速度 7.59 km/s
星下点 0.09°N, 28.82°W
发射日期 Oct 5, 2022
运行时间 3.6 years
类型 internet

技术详情

分类 Payload
质量 305.00 kg
干质量 290.00 kg
总质量 305.00 kg
长度 0.20 m
直径 2.80 m
跨度 9.00 m
形状 Box + pan
制造商 SPXS
平台类型 Starlink
阶段状态 In Orbit
所有者/国家 SPXS/US

Most Searched